PWSweather.com
Personal Weather Stations
Station Observations
UGLTEWKE1
3 Beckford Close, BeckfordGB GL20 7

3 Beckford CloseBeckfordGB GL20 7

Lat: 52.01582, Lon: -2.037782

Elevation: 112

Station Type: Davis Vantage Pro2

http://www.theshieling.net/weatherdavis.php

High Low Average
Temperature 53.4°F11.9°C 40.8°F4.9°C 47.9°F8.8°C
Dew Point 43.5°F6.4°C 35.6°F2.0°C 39.7°F4.3°C
Winds 9.0 mph 14.5 kmh Calm Calm 2.0 mph SE3.2 kmh SE
Wind Gusts 19.0 mph30.6 kmh -- 8.0 mph12.9 kmh
Humidity 90% 58% 74%
Pressure 29.66 in1004.4 mb 29.42 in996.3 mb -
Precipitation 0.03 in0.8 mm - -
Hour Temp Dew Point Humidity Winds Wind Gusts Pressure Precip Precip Rate Daily Precip Total
12:00 AM 42.4°F5.8°C 39.2°F4.0°C 88% 1.0 mph SE1.6 kmh SE 4.0 mph6.4 kmh 29.44 in997.0 mb 0.02 in0.5 mm 0.00 in0.0 mm 0.03 in0.8 mm
12:05 AM 42.4°F5.8°C 39.2°F4.0°C 88% 1.0 mph SSE1.6 kmh SSE 5.0 mph8.0 kmh 29.44 in997.0 mb 0.02 in0.5 mm 0.00 in0.0 mm 0.03 in0.8 mm
12:10 AM 42.4°F5.8°C 39.4°F4.1°C 89% Calm Calm 1.0 mph1.6 kmh 29.44 in997.0 mb 0.02 in0.5 mm 0.00 in0.0 mm 0.03 in0.8 mm
12:15 AM 42.4°F5.8°C 39.4°F4.1°C 89% Calm Calm 4.0 mph6.4 kmh 29.44 in997.0 mb 0.02 in0.5 mm 0.00 in0.0 mm 0.03 in0.8 mm
12:20 AM 42.4°F5.8°C 39.4°F4.1°C 89% Calm Calm 3.0 mph4.8 kmh 29.44 in997.0 mb 0.02 in0.5 mm 0.00 in0.0 mm 0.03 in0.8 mm
12:25 AM 42.4°F5.8°C 39.4°F4.1°C 89% Calm Calm 3.0 mph4.8 kmh 29.44 in997.0 mb 0.02 in0.5 mm 0.00 in0.0 mm 0.03 in0.8 mm
12:30 AM 42.3°F5.7°C 39.2°F4.0°C 89% Calm Calm 4.0 mph6.4 kmh 29.44 in997.0 mb 0.02 in0.5 mm 0.00 in0.0 mm 0.03 in0.8 mm
12:35 AM 42.3°F5.7°C 39.2°F4.0°C 89% Calm Calm 2.0 mph3.2 kmh 29.44 in997.0 mb 0.02 in0.5 mm 0.00 in0.0 mm 0.03 in0.8 mm
12:40 AM 42.3°F5.7°C 39.0°F3.9°C 88% Calm Calm -- 29.44 in997.0 mb 0.02 in0.5 mm 0.00 in0.0 mm 0.03 in0.8 mm
12:45 AM 42.1°F5.6°C 39.0°F3.9°C 89% Calm Calm -- 29.44 in997.0 mb 0.02 in0.5 mm 0.00 in0.0 mm 0.03 in0.8 mm
12:50 AM 42.1°F5.6°C 39.0°F3.9°C 89% Calm Calm 3.0 mph4.8 kmh 29.44 in997.0 mb 0.01 in0.3 mm 0.00 in0.0 mm 0.03 in0.8 mm
12:55 AM 42.1°F5.6°C 39.0°F3.9°C 89% Calm Calm -- 29.44 in997.0 mb 0.01 in0.3 mm 0.00 in0.0 mm 0.03 in0.8 mm
01:00 AM 41.7°F5.4°C 38.7°F3.7°C 89% Calm Calm -- 29.44 in997.0 mb 0.00 in0.0 mm 0.00 in0.0 mm 0.03 in0.8 mm
01:05 AM 41.7°F5.4°C 38.7°F3.7°C 89% Calm Calm 1.0 mph1.6 kmh 29.44 in997.0 mb 0.00 in0.0 mm 0.00 in0.0 mm 0.03 in0.8 mm
01:10 AM 41.5°F5.3°C 38.5°F3.6°C 89% Calm Calm -- 29.44 in997.0 mb 0.00 in0.0 mm 0.00 in0.0 mm 0.03 in0.8 mm
01:15 AM 41.4°F5.2°C 38.3°F3.5°C 89% Calm Calm 2.0 mph3.2 kmh 29.44 in997.0 mb 0.00 in0.0 mm 0.00 in0.0 mm 0.03 in0.8 mm
01:20 AM 41.2°F5.1°C 38.1°F3.4°C 89% Calm Calm -- 29.44 in997.0 mb 0.00 in0.0 mm 0.00 in0.0 mm 0.03 in0.8 mm
01:25 AM 41.2°F5.1°C 38.1°F3.4°C 89% Calm Calm -- 29.44 in997.0 mb 0.00 in0.0 mm 0.00 in0.0 mm 0.03 in0.8 mm
01:30 AM 40.8°F4.9°C 37.8°F3.2°C 89% Calm Calm -- 29.44 in997.0 mb 0.00 in0.0 mm 0.00 in0.0 mm 0.03 in0.8 mm
01:35 AM 40.8°F4.9°C 37.8°F3.2°C 89% Calm Calm -- 29.44 in997.0 mb 0.00 in0.0 mm 0.00 in0.0 mm 0.03 in0.8 mm
01:40 AM 40.8°F4.9°C 37.8°F3.2°C 89% Calm Calm -- 29.44 in997.0 mb 0.00 in0.0 mm 0.00 in0.0 mm 0.03 in0.8 mm
01:45 AM 41.0°F5.0°C 38.3°F3.5°C 90% Calm Calm 2.0 mph3.2 kmh 29.44 in997.0 mb 0.00 in0.0 mm 0.00 in0.0 mm 0.03 in0.8 mm
01:50 AM 41.2°F5.1°C 38.5°F3.6°C 90% Calm Calm -- 29.44 in997.0 mb 0.00 in0.0 mm 0.00 in0.0 mm 0.03 in0.8 mm
01:55 AM 41.4°F5.2°C 38.3°F3.5°C 89% Calm Calm 2.0 mph3.2 kmh 29.44 in997.0 mb 0.00 in0.0 mm 0.00 in0.0 mm 0.03 in0.8 mm
02:00 AM 41.4°F5.2°C 38.7°F3.7°C 90% Calm Calm 9.0 mph14.5 kmh 29.44 in997.0 mb 0.01 in0.3 mm 0.01 in0.3 mm 0.03 in0.8 mm
02:05 AM 41.5°F5.3°C 38.5°F3.6°C 89% Calm Calm -- 29.44 in997.0 mb 0.01 in0.3 mm 0.00 in0.0 mm 0.03 in0.8 mm
02:10 AM 41.5°F5.3°C 38.5°F3.6°C 89% Calm Calm 2.0 mph3.2 kmh 29.44 in997.0 mb 0.01 in0.3 mm 0.00 in0.0 mm 0.03 in0.8 mm
02:15 AM 41.7°F5.4°C 39.0°F3.9°C 90% Calm Calm 4.0 mph6.4 kmh 29.44 in997.0 mb 0.01 in0.3 mm 0.00 in0.0 mm 0.03 in0.8 mm
02:20 AM 42.1°F5.6°C 39.0°F3.9°C 89% Calm Calm 3.0 mph4.8 kmh 29.44 in997.0 mb 0.01 in0.3 mm 0.00 in0.0 mm 0.03 in0.8 mm
02:25 AM 42.3°F5.7°C 39.2°F4.0°C 89% Calm Calm 3.0 mph4.8 kmh 29.44 in997.0 mb 0.01 in0.3 mm 0.00 in0.0 mm 0.03 in0.8 mm
02:30 AM 42.4°F5.8°C 39.4°F4.1°C 89% Calm Calm 6.0 mph9.7 kmh 29.44 in997.0 mb 0.01 in0.3 mm 0.00 in0.0 mm 0.03 in0.8 mm
02:35 AM 42.4°F5.8°C 39.4°F4.1°C 89% Calm Calm 1.0 mph1.6 kmh 29.44 in997.0 mb 0.01 in0.3 mm 0.00 in0.0 mm 0.03 in0.8 mm
02:40 AM 42.8°F6.0°C 39.6°F4.2°C 88% Calm Calm 4.0 mph6.4 kmh 29.44 in997.0 mb 0.01 in0.3 mm 0.00 in0.0 mm 0.03 in0.8 mm
02:45 AM 43.0°F6.1°C 39.7°F4.3°C 88% Calm Calm 1.0 mph1.6 kmh 29.44 in997.0 mb 0.01 in0.3 mm 0.00 in0.0 mm 0.03 in0.8 mm
02:50 AM 43.0°F6.1°C 39.7°F4.3°C 88% Calm Calm 3.0 mph4.8 kmh 29.44 in997.0 mb 0.01 in0.3 mm 0.00 in0.0 mm 0.03 in0.8 mm
02:55 AM 43.2°F6.2°C 39.6°F4.2°C 87% Calm Calm 8.0 mph12.9 kmh 29.44 in997.0 mb 0.01 in0.3 mm 0.00 in0.0 mm 0.03 in0.8 mm
03:00 AM 43.3°F6.3°C 39.7°F4.3°C 87% Calm Calm 5.0 mph8.0 kmh 29.44 in997.0 mb 0.00 in0.0 mm 0.00 in0.0 mm 0.03 in0.8 mm
03:05 AM 43.3°F6.3°C 39.4°F4.1°C 86% Calm Calm 6.0 mph9.7 kmh 29.44 in997.0 mb 0.00 in0.0 mm 0.00 in0.0 mm 0.03 in0.8 mm
03:10 AM 43.5°F6.4°C 39.6°F4.2°C 86% Calm Calm 9.0 mph14.5 kmh 29.44 in997.0 mb 0.00 in0.0 mm 0.00 in0.0 mm 0.03 in0.8 mm
03:15 AM 43.7°F6.5°C 39.6°F4.2°C 85% Calm Calm 5.0 mph8.0 kmh 29.44 in997.0 mb 0.00 in0.0 mm 0.00 in0.0 mm 0.03 in0.8 mm
03:20 AM 43.9°F6.6°C 39.7°F4.3°C 85% 1.0 mph E1.6 kmh E 6.0 mph9.7 kmh 29.44 in997.0 mb 0.00 in0.0 mm 0.00 in0.0 mm 0.03 in0.8 mm
03:25 AM 43.9°F6.6°C 39.4°F4.1°C 84% 1.0 mph E1.6 kmh E 7.0 mph11.3 kmh 29.44 in997.0 mb 0.00 in0.0 mm 0.00 in0.0 mm 0.03 in0.8 mm
03:30 AM 44.1°F6.7°C 39.6°F4.2°C 84% 2.0 mph E3.2 kmh E 11.0 mph17.7 kmh 29.44 in997.0 mb 0.00 in0.0 mm 0.00 in0.0 mm 0.03 in0.8 mm
03:35 AM 44.1°F6.7°C 39.2°F4.0°C 83% 1.0 mph E1.6 kmh E 11.0 mph17.7 kmh 29.43 in996.6 mb 0.00 in0.0 mm 0.00 in0.0 mm 0.03 in0.8 mm
03:40 AM 44.1°F6.7°C 39.2°F4.0°C 83% 1.0 mph E1.6 kmh E 6.0 mph9.7 kmh 29.43 in996.6 mb 0.00 in0.0 mm 0.00 in0.0 mm 0.03 in0.8 mm
03:45 AM 44.1°F6.7°C 39.2°F4.0°C 83% 1.0 mph E1.6 kmh E 12.0 mph19.3 kmh 29.43 in996.6 mb 0.00 in0.0 mm 0.00 in0.0 mm 0.03 in0.8 mm
03:50 AM 44.1°F6.7°C 38.8°F3.8°C 82% 2.0 mph ENE3.2 kmh ENE 9.0 mph14.5 kmh 29.43 in996.6 mb 0.00 in0.0 mm 0.00 in0.0 mm 0.03 in0.8 mm
03:55 AM 43.9°F6.6°C 38.7°F3.7°C 82% 1.0 mph E1.6 kmh E 9.0 mph14.5 kmh 29.42 in996.3 mb 0.00 in0.0 mm 0.00 in0.0 mm 0.03 in0.8 mm
04:00 AM 44.1°F6.7°C 38.8°F3.8°C 82% 2.0 mph ENE3.2 kmh ENE 14.0 mph22.5 kmh 29.42 in996.3 mb 0.00 in0.0 mm 0.00 in0.0 mm 0.03 in0.8 mm
04:05 AM 44.1°F6.7°C 38.7°F3.7°C 81% 2.0 mph ENE3.2 kmh ENE 14.0 mph22.5 kmh 29.42 in996.3 mb 0.00 in0.0 mm 0.00 in0.0 mm 0.03 in0.8 mm
04:10 AM 44.1°F6.7°C 38.7°F3.7°C 81% 2.0 mph E3.2 kmh E 12.0 mph19.3 kmh 29.42 in996.3 mb 0.00 in0.0 mm 0.00 in0.0 mm 0.03 in0.8 mm
04:15 AM 44.2°F6.8°C 38.5°F3.6°C 80% 2.0 mph ENE3.2 kmh ENE 10.0 mph16.1 kmh 29.43 in996.6 mb 0.00 in0.0 mm 0.00 in0.0 mm 0.03 in0.8 mm
04:20 AM 44.2°F6.8°C 38.8°F3.8°C 81% 2.0 mph E3.2 kmh E 12.0 mph19.3 kmh 29.43 in996.6 mb 0.00 in0.0 mm 0.00 in0.0 mm 0.03 in0.8 mm
04:25 AM 44.1°F6.7°C 38.7°F3.7°C 81% 2.0 mph E3.2 kmh E 15.0 mph24.1 kmh 29.43 in996.6 mb 0.00 in0.0 mm 0.00 in0.0 mm 0.03 in0.8 mm
04:30 AM 44.1°F6.7°C 38.7°F3.7°C 81% 2.0 mph E3.2 kmh E 10.0 mph16.1 kmh 29.43 in996.6 mb 0.00 in0.0 mm 0.00 in0.0 mm 0.03 in0.8 mm
04:35 AM 44.1°F6.7°C 38.7°F3.7°C 81% 1.0 mph E1.6 kmh E 10.0 mph16.1 kmh 29.43 in996.6 mb 0.00 in0.0 mm 0.00 in0.0 mm 0.03 in0.8 mm
04:40 AM 44.1°F6.7°C 38.7°F3.7°C 81% 2.0 mph E3.2 kmh E 12.0 mph19.3 kmh 29.44 in997.0 mb 0.00 in0.0 mm 0.00 in0.0 mm 0.03 in0.8 mm
04:45 AM 44.1°F6.7°C 38.8°F3.8°C 82% 1.0 mph ENE1.6 kmh ENE 9.0 mph14.5 kmh 29.44 in997.0 mb 0.00 in0.0 mm 0.00 in0.0 mm 0.03 in0.8 mm
04:50 AM 43.9°F6.6°C 38.7°F3.7°C 82% 1.0 mph E1.6 kmh E 14.0 mph22.5 kmh 29.44 in997.0 mb 0.00 in0.0 mm 0.00 in0.0 mm 0.03 in0.8 mm
04:55 AM 43.7°F6.5°C 38.8°F3.8°C 83% 2.0 mph E3.2 kmh E 13.0 mph20.9 kmh 29.44 in997.0 mb 0.00 in0.0 mm 0.00 in0.0 mm 0.03 in0.8 mm
05:00 AM 43.5°F6.4°C 38.7°F3.7°C 83% 2.0 mph E3.2 kmh E 12.0 mph19.3 kmh 29.44 in997.0 mb 0.00 in0.0 mm 0.00 in0.0 mm 0.03 in0.8 mm
05:05 AM 43.5°F6.4°C 38.7°F3.7°C 83% 3.0 mph E4.8 kmh E 12.0 mph19.3 kmh 29.44 in997.0 mb 0.00 in0.0 mm 0.00 in0.0 mm 0.03 in0.8 mm
05:10 AM 43.3°F6.3°C 38.5°F3.6°C 83% 1.0 mph E1.6 kmh E 8.0 mph12.9 kmh 29.44 in997.0 mb 0.00 in0.0 mm 0.00 in0.0 mm 0.03 in0.8 mm
05:15 AM 43.3°F6.3°C 38.8°F3.8°C 84% 2.0 mph ENE3.2 kmh ENE 13.0 mph20.9 kmh 29.44 in997.0 mb 0.00 in0.0 mm 0.00 in0.0 mm 0.03 in0.8 mm
05:20 AM 43.3°F6.3°C 38.5°F3.6°C 83% 2.0 mph E3.2 kmh E 12.0 mph19.3 kmh 29.44 in997.0 mb 0.00 in0.0 mm 0.00 in0.0 mm 0.03 in0.8 mm
05:25 AM 43.5°F6.4°C 38.7°F3.7°C 83% 3.0 mph ENE4.8 kmh ENE 11.0 mph17.7 kmh 29.44 in997.0 mb 0.00 in0.0 mm 0.00 in0.0 mm 0.03 in0.8 mm
05:30 AM 43.7°F6.5°C 38.5°F3.6°C 82% 2.0 mph E3.2 kmh E 11.0 mph17.7 kmh 29.44 in997.0 mb 0.00 in0.0 mm 0.00 in0.0 mm 0.03 in0.8 mm
05:35 AM 43.7°F6.5°C 38.5°F3.6°C 82% 2.0 mph E3.2 kmh E 10.0 mph16.1 kmh 29.44 in997.0 mb 0.00 in0.0 mm 0.00 in0.0 mm 0.03 in0.8 mm
05:40 AM 43.9°F6.6°C 38.7°F3.7°C 82% 2.0 mph E3.2 kmh E 9.0 mph14.5 kmh 29.44 in997.0 mb 0.00 in0.0 mm 0.00 in0.0 mm 0.03 in0.8 mm
05:45 AM 44.1°F6.7°C 38.8°F3.8°C 82% 2.0 mph ESE3.2 kmh ESE 11.0 mph17.7 kmh 29.44 in997.0 mb 0.00 in0.0 mm 0.00 in0.0 mm 0.03 in0.8 mm
05:50 AM 44.1°F6.7°C 39.2°F4.0°C 83% 2.0 mph E3.2 kmh E 12.0 mph19.3 kmh 29.44 in997.0 mb 0.00 in0.0 mm 0.00 in0.0 mm 0.03 in0.8 mm
05:55 AM 44.1°F6.7°C 39.2°F4.0°C 83% 2.0 mph E3.2 kmh E 12.0 mph19.3 kmh 29.44 in997.0 mb 0.00 in0.0 mm 0.00 in0.0 mm 0.03 in0.8 mm
06:00 AM 44.1°F6.7°C 39.2°F4.0°C 83% 2.0 mph ESE3.2 kmh ESE 10.0 mph16.1 kmh 29.44 in997.0 mb 0.00 in0.0 mm 0.00 in0.0 mm 0.03 in0.8 mm
06:05 AM 44.1°F6.7°C 39.2°F4.0°C 83% 3.0 mph ENE4.8 kmh ENE 12.0 mph19.3 kmh 29.45 in997.3 mb 0.00 in0.0 mm 0.00 in0.0 mm 0.03 in0.8 mm
06:10 AM 44.1°F6.7°C 39.2°F4.0°C 83% 2.0 mph E3.2 kmh E 13.0 mph20.9 kmh 29.45 in997.3 mb 0.00 in0.0 mm 0.00 in0.0 mm 0.03 in0.8 mm
06:15 AM 44.1°F6.7°C 39.2°F4.0°C 83% 1.0 mph SE1.6 kmh SE 12.0 mph19.3 kmh 29.45 in997.3 mb 0.00 in0.0 mm 0.00 in0.0 mm 0.03 in0.8 mm
06:20 AM 44.2°F6.8°C 39.4°F4.1°C 83% 3.0 mph E4.8 kmh E 12.0 mph19.3 kmh 29.45 in997.3 mb 0.00 in0.0 mm 0.00 in0.0 mm 0.03 in0.8 mm
06:25 AM 44.4°F6.9°C 39.6°F4.2°C 83% 2.0 mph ESE3.2 kmh ESE 13.0 mph20.9 kmh 29.44 in997.0 mb 0.00 in0.0 mm 0.00 in0.0 mm 0.03 in0.8 mm
06:30 AM 44.4°F6.9°C 39.6°F4.2°C 83% 1.0 mph SE1.6 kmh SE 10.0 mph16.1 kmh 29.45 in997.3 mb 0.00 in0.0 mm 0.00 in0.0 mm 0.03 in0.8 mm
06:35 AM 44.4°F6.9°C 39.2°F4.0°C 82% 4.0 mph SE6.4 kmh SE 12.0 mph19.3 kmh 29.45 in997.3 mb 0.00 in0.0 mm 0.00 in0.0 mm 0.03 in0.8 mm
06:40 AM 44.8°F7.1°C 39.6°F4.2°C 82% 3.0 mph SE4.8 kmh SE 12.0 mph19.3 kmh 29.45 in997.3 mb 0.00 in0.0 mm 0.00 in0.0 mm 0.03 in0.8 mm
06:45 AM 45.0°F7.2°C 39.7°F4.3°C 82% 2.0 mph E3.2 kmh E 11.0 mph17.7 kmh 29.46 in997.6 mb 0.00 in0.0 mm 0.00 in0.0 mm 0.03 in0.8 mm
06:50 AM 45.1°F7.3°C 39.7°F4.3°C 81% 2.0 mph SE3.2 kmh SE 15.0 mph24.1 kmh 29.46 in997.6 mb 0.00 in0.0 mm 0.00 in0.0 mm 0.03 in0.8 mm
06:55 AM 45.3°F7.4°C 40.1°F4.5°C 82% 3.0 mph SE4.8 kmh SE 12.0 mph19.3 kmh 29.46 in997.6 mb 0.00 in0.0 mm 0.00 in0.0 mm 0.03 in0.8 mm
07:00 AM 45.5°F7.5°C 40.3°F4.6°C 82% 3.0 mph SE4.8 kmh SE 11.0 mph17.7 kmh 29.45 in997.3 mb 0.00 in0.0 mm 0.00 in0.0 mm 0.03 in0.8 mm
07:05 AM 45.9°F7.7°C 40.3°F4.6°C 81% 4.0 mph SE6.4 kmh SE 15.0 mph24.1 kmh 29.45 in997.3 mb 0.00 in0.0 mm 0.00 in0.0 mm 0.03 in0.8 mm
07:10 AM 46.0°F7.8°C 40.3°F4.6°C 80% 4.0 mph SE6.4 kmh SE 10.0 mph16.1 kmh 29.46 in997.6 mb 0.00 in0.0 mm 0.00 in0.0 mm 0.03 in0.8 mm
07:15 AM 46.0°F7.8°C 40.3°F4.6°C 80% 2.0 mph ESE3.2 kmh ESE 9.0 mph14.5 kmh 29.46 in997.6 mb 0.00 in0.0 mm 0.00 in0.0 mm 0.03 in0.8 mm
07:20 AM 46.0°F7.8°C 40.3°F4.6°C 80% 2.0 mph ENE3.2 kmh ENE 12.0 mph19.3 kmh 29.46 in997.6 mb 0.00 in0.0 mm 0.00 in0.0 mm 0.03 in0.8 mm
07:25 AM 46.0°F7.8°C 39.9°F4.4°C 79% 3.0 mph ESE4.8 kmh ESE 11.0 mph17.7 kmh 29.47 in998.0 mb 0.00 in0.0 mm 0.00 in0.0 mm 0.03 in0.8 mm
07:30 AM 46.2°F7.9°C 40.5°F4.7°C 80% 3.0 mph E4.8 kmh E 13.0 mph20.9 kmh 29.47 in998.0 mb 0.00 in0.0 mm 0.00 in0.0 mm 0.03 in0.8 mm
07:35 AM 46.6°F8.1°C 40.8°F4.9°C 80% 2.0 mph SE3.2 kmh SE 14.0 mph22.5 kmh 29.48 in998.3 mb 0.00 in0.0 mm 0.00 in0.0 mm 0.03 in0.8 mm
07:40 AM 47.1°F8.4°C 41.0°F5.0°C 79% 3.0 mph SE4.8 kmh SE 12.0 mph19.3 kmh 29.48 in998.3 mb 0.00 in0.0 mm 0.00 in0.0 mm 0.03 in0.8 mm
07:45 AM 47.7°F8.7°C 41.5°F5.3°C 79% 2.0 mph SE3.2 kmh SE 15.0 mph24.1 kmh 29.49 in998.6 mb 0.00 in0.0 mm 0.00 in0.0 mm 0.03 in0.8 mm
07:50 AM 48.0°F8.9°C 41.9°F5.5°C 79% 1.0 mph SE1.6 kmh SE 5.0 mph8.0 kmh 29.49 in998.6 mb 0.00 in0.0 mm 0.00 in0.0 mm 0.03 in0.8 mm
07:55 AM 48.4°F9.1°C 41.9°F5.5°C 78% 4.0 mph SE6.4 kmh SE 13.0 mph20.9 kmh 29.49 in998.6 mb 0.00 in0.0 mm 0.00 in0.0 mm 0.03 in0.8 mm
08:00 AM 48.4°F9.1°C 41.5°F5.3°C 77% 3.0 mph SE4.8 kmh SE 12.0 mph19.3 kmh 29.49 in998.6 mb 0.00 in0.0 mm 0.00 in0.0 mm 0.03 in0.8 mm
08:05 AM 48.4°F9.1°C 41.9°F5.5°C 78% 4.0 mph ESE6.4 kmh ESE 14.0 mph22.5 kmh 29.49 in998.6 mb 0.00 in0.0 mm 0.00 in0.0 mm 0.03 in0.8 mm
08:10 AM 48.2°F9.0°C 42.1°F5.6°C 79% 2.0 mph SSE3.2 kmh SSE 11.0 mph17.7 kmh 29.50 in999.0 mb 0.00 in0.0 mm 0.00 in0.0 mm 0.03 in0.8 mm
08:15 AM 48.4°F9.1°C 41.9°F5.5°C 78% 1.0 mph SE1.6 kmh SE 11.0 mph17.7 kmh 29.50 in999.0 mb 0.00 in0.0 mm 0.00 in0.0 mm 0.03 in0.8 mm
08:20 AM 48.6°F9.2°C 41.7°F5.4°C 77% 4.0 mph SE6.4 kmh SE 17.0 mph27.4 kmh 29.51 in999.3 mb 0.00 in0.0 mm 0.00 in0.0 mm 0.03 in0.8 mm
08:25 AM 48.4°F9.1°C 41.9°F5.5°C 78% 2.0 mph SSE3.2 kmh SSE 17.0 mph27.4 kmh 29.51 in999.3 mb 0.00 in0.0 mm 0.00 in0.0 mm 0.03 in0.8 mm
08:30 AM 47.8°F8.8°C 41.4°F5.2°C 78% 4.0 mph SE6.4 kmh SE 16.0 mph25.7 kmh 29.51 in999.3 mb 0.00 in0.0 mm 0.00 in0.0 mm 0.03 in0.8 mm
08:35 AM 47.8°F8.8°C 41.7°F5.4°C 79% 2.0 mph SE3.2 kmh SE 9.0 mph14.5 kmh 29.51 in999.3 mb 0.00 in0.0 mm 0.00 in0.0 mm 0.03 in0.8 mm
08:40 AM 47.8°F8.8°C 41.7°F5.4°C 79% 2.0 mph SE3.2 kmh SE 11.0 mph17.7 kmh 29.52 in999.7 mb 0.00 in0.0 mm 0.00 in0.0 mm 0.03 in0.8 mm
08:45 AM 48.0°F8.9°C 41.5°F5.3°C 78% 4.0 mph SE6.4 kmh SE 13.0 mph20.9 kmh 29.52 in999.7 mb 0.00 in0.0 mm 0.00 in0.0 mm 0.03 in0.8 mm
08:50 AM 48.2°F9.0°C 42.1°F5.6°C 79% 4.0 mph SE6.4 kmh SE 13.0 mph20.9 kmh 29.52 in999.7 mb 0.00 in0.0 mm 0.00 in0.0 mm 0.03 in0.8 mm
08:55 AM 48.4°F9.1°C 41.9°F5.5°C 78% 5.0 mph SE8.0 kmh SE 15.0 mph24.1 kmh 29.52 in999.7 mb 0.00 in0.0 mm 0.00 in0.0 mm 0.03 in0.8 mm
09:00 AM 48.6°F9.2°C 42.1°F5.6°C 78% 3.0 mph SE4.8 kmh SE 11.0 mph17.7 kmh 29.52 in999.7 mb 0.00 in0.0 mm 0.00 in0.0 mm 0.03 in0.8 mm
09:05 AM 48.7°F9.3°C 41.9°F5.5°C 77% 5.0 mph SE8.0 kmh SE 15.0 mph24.1 kmh 29.52 in999.7 mb 0.00 in0.0 mm 0.00 in0.0 mm 0.03 in0.8 mm
09:10 AM 48.9°F9.4°C 42.1°F5.6°C 77% 4.0 mph SE6.4 kmh SE 13.0 mph20.9 kmh 29.53 in1000.0 mb 0.00 in0.0 mm 0.00 in0.0 mm 0.03 in0.8 mm
09:15 AM 48.9°F9.4°C 42.1°F5.6°C 77% 4.0 mph SE6.4 kmh SE 10.0 mph16.1 kmh 29.52 in999.7 mb 0.00 in0.0 mm 0.00 in0.0 mm 0.03 in0.8 mm
09:20 AM 49.3°F9.6°C 42.6°F5.9°C 78% 6.0 mph SE9.7 kmh SE 13.0 mph20.9 kmh 29.53 in1000.0 mb 0.00 in0.0 mm 0.00 in0.0 mm 0.03 in0.8 mm
09:25 AM 49.6°F9.8°C 43.0°F6.1°C 78% 5.0 mph SE8.0 kmh SE 12.0 mph19.3 kmh 29.53 in1000.0 mb 0.00 in0.0 mm 0.00 in0.0 mm 0.03 in0.8 mm
09:30 AM 50.2°F10.1°C 43.0°F6.1°C 76% 4.0 mph SE6.4 kmh SE 15.0 mph24.1 kmh 29.53 in1000.0 mb 0.00 in0.0 mm 0.00 in0.0 mm 0.03 in0.8 mm
09:35 AM 50.2°F10.1°C 43.0°F6.1°C 76% 7.0 mph SE11.3 kmh SE 18.0 mph29.0 kmh 29.53 in1000.0 mb 0.00 in0.0 mm 0.00 in0.0 mm 0.03 in0.8 mm
09:40 AM 50.4°F10.2°C 43.2°F6.2°C 76% 3.0 mph SE4.8 kmh SE 10.0 mph16.1 kmh 29.53 in1000.0 mb 0.00 in0.0 mm 0.00 in0.0 mm 0.03 in0.8 mm
09:45 AM 50.2°F10.1°C 42.6°F5.9°C 75% 4.0 mph SE6.4 kmh SE 14.0 mph22.5 kmh 29.54 in1000.3 mb 0.00 in0.0 mm 0.00 in0.0 mm 0.03 in0.8 mm
09:50 AM 50.2°F10.1°C 43.0°F6.1°C 76% 2.0 mph SE3.2 kmh SE 11.0 mph17.7 kmh 29.54 in1000.3 mb 0.00 in0.0 mm 0.00 in0.0 mm 0.03 in0.8 mm
09:55 AM 50.4°F10.2°C 43.2°F6.2°C 76% 2.0 mph SE3.2 kmh SE 10.0 mph16.1 kmh 29.54 in1000.3 mb 0.00 in0.0 mm 0.00 in0.0 mm 0.03 in0.8 mm
10:00 AM 50.4°F10.2°C 43.2°F6.2°C 76% 3.0 mph SE4.8 kmh SE 11.0 mph17.7 kmh 29.54 in1000.3 mb 0.00 in0.0 mm 0.00 in0.0 mm 0.03 in0.8 mm
10:05 AM 50.2°F10.1°C 42.6°F5.9°C 75% 6.0 mph SE9.7 kmh SE 16.0 mph25.7 kmh 29.54 in1000.3 mb 0.00 in0.0 mm 0.00 in0.0 mm 0.03 in0.8 mm
10:10 AM 50.2°F10.1°C 42.6°F5.9°C 75% 8.0 mph SE12.9 kmh SE 17.0 mph27.4 kmh 29.54 in1000.3 mb 0.00 in0.0 mm 0.00 in0.0 mm 0.03 in0.8 mm
10:15 AM 50.2°F10.1°C 42.3°F5.7°C 74% 7.0 mph SE11.3 kmh SE 15.0 mph24.1 kmh 29.54 in1000.3 mb 0.00 in0.0 mm 0.00 in0.0 mm 0.03 in0.8 mm
10:20 AM 50.5°F10.3°C 43.0°F6.1°C 75% 6.0 mph SE9.7 kmh SE 17.0 mph27.4 kmh 29.54 in1000.3 mb 0.00 in0.0 mm 0.00 in0.0 mm 0.03 in0.8 mm
10:25 AM 50.9°F10.5°C 43.5°F6.4°C 76% 3.0 mph SE4.8 kmh SE 10.0 mph16.1 kmh 29.54 in1000.3 mb 0.00 in0.0 mm 0.00 in0.0 mm 0.03 in0.8 mm
10:30 AM 51.1°F10.6°C 43.3°F6.3°C 75% 6.0 mph SE9.7 kmh SE 14.0 mph22.5 kmh 29.55 in1000.7 mb 0.00 in0.0 mm 0.00 in0.0 mm 0.03 in0.8 mm
10:35 AM 50.9°F10.5°C 43.0°F6.1°C 74% 6.0 mph SE9.7 kmh SE 13.0 mph20.9 kmh 29.55 in1000.7 mb 0.00 in0.0 mm 0.00 in0.0 mm 0.03 in0.8 mm
10:40 AM 51.1°F10.6°C 43.2°F6.2°C 74% 5.0 mph SE8.0 kmh SE 12.0 mph19.3 kmh 29.55 in1000.7 mb 0.00 in0.0 mm 0.00 in0.0 mm 0.03 in0.8 mm
10:45 AM 51.1°F10.6°C 43.2°F6.2°C 74% 5.0 mph SE8.0 kmh SE 14.0 mph22.5 kmh 29.55 in1000.7 mb 0.00 in0.0 mm 0.00 in0.0 mm 0.03 in0.8 mm
10:50 AM 51.3°F10.7°C 42.6°F5.9°C 72% 7.0 mph SE11.3 kmh SE 15.0 mph24.1 kmh 29.55 in1000.7 mb 0.00 in0.0 mm 0.00 in0.0 mm 0.03 in0.8 mm
10:55 AM 51.3°F10.7°C 43.0°F6.1°C 73% 6.0 mph SE9.7 kmh SE 13.0 mph20.9 kmh 29.56 in1001.0 mb 0.00 in0.0 mm 0.00 in0.0 mm 0.03 in0.8 mm
11:00 AM 51.4°F10.8°C 42.8°F6.0°C 72% 5.0 mph SE8.0 kmh SE 14.0 mph22.5 kmh 29.56 in1001.0 mb 0.00 in0.0 mm 0.00 in0.0 mm 0.03 in0.8 mm
11:05 AM 51.3°F10.7°C 43.0°F6.1°C 73% 4.0 mph SE6.4 kmh SE 10.0 mph16.1 kmh 29.56 in1001.0 mb 0.00 in0.0 mm 0.00 in0.0 mm 0.03 in0.8 mm
11:10 AM 51.1°F10.6°C 42.4°F5.8°C 72% 3.0 mph SE4.8 kmh SE 11.0 mph17.7 kmh 29.57 in1001.4 mb 0.00 in0.0 mm 0.00 in0.0 mm 0.03 in0.8 mm
11:15 AM 50.7°F10.4°C 42.4°F5.8°C 73% 3.0 mph SE4.8 kmh SE 10.0 mph16.1 kmh 29.57 in1001.4 mb 0.00 in0.0 mm 0.00 in0.0 mm 0.03 in0.8 mm
11:20 AM 50.5°F10.3°C 42.3°F5.7°C 73% 3.0 mph SE4.8 kmh SE 9.0 mph14.5 kmh 29.57 in1001.4 mb 0.00 in0.0 mm 0.00 in0.0 mm 0.03 in0.8 mm
11:25 AM 50.4°F10.2°C 42.4°F5.8°C 74% Calm Calm 4.0 mph6.4 kmh 29.57 in1001.4 mb 0.00 in0.0 mm 0.00 in0.0 mm 0.03 in0.8 mm
11:30 AM 50.4°F10.2°C 42.4°F5.8°C 74% 3.0 mph SE4.8 kmh SE 12.0 mph19.3 kmh 29.57 in1001.4 mb 0.00 in0.0 mm 0.00 in0.0 mm 0.03 in0.8 mm
11:35 AM 50.4°F10.2°C 42.4°F5.8°C 74% 1.0 mph SE1.6 kmh SE 8.0 mph12.9 kmh 29.57 in1001.4 mb 0.00 in0.0 mm 0.00 in0.0 mm 0.03 in0.8 mm
11:40 AM 50.4°F10.2°C 42.4°F5.8°C 74% 2.0 mph ENE3.2 kmh ENE 10.0 mph16.1 kmh 29.58 in1001.7 mb 0.00 in0.0 mm 0.00 in0.0 mm 0.03 in0.8 mm
11:45 AM 50.4°F10.2°C 42.1°F5.6°C 73% 4.0 mph SE6.4 kmh SE 14.0 mph22.5 kmh 29.58 in1001.7 mb 0.00 in0.0 mm 0.00 in0.0 mm 0.03 in0.8 mm
11:50 AM 50.5°F10.3°C 42.6°F5.9°C 74% 7.0 mph SE11.3 kmh SE 15.0 mph24.1 kmh 29.58 in1001.7 mb 0.00 in0.0 mm 0.00 in0.0 mm 0.03 in0.8 mm
11:55 AM 51.3°F10.7°C 42.3°F5.7°C 71% 8.0 mph SSE12.9 kmh SSE 16.0 mph25.7 kmh 29.58 in1001.7 mb 0.00 in0.0 mm 0.00 in0.0 mm 0.03 in0.8 mm
12:00 PM 51.6°F10.9°C 42.4°F5.8°C 71% 7.0 mph SE11.3 kmh SE 15.0 mph24.1 kmh 29.58 in1001.7 mb 0.00 in0.0 mm 0.00 in0.0 mm 0.03 in0.8 mm
12:05 PM 52.0°F11.1°C 42.8°F6.0°C 71% 6.0 mph SE9.7 kmh SE 15.0 mph24.1 kmh 29.58 in1001.7 mb 0.00 in0.0 mm 0.00 in0.0 mm 0.03 in0.8 mm
12:10 PM 51.8°F11.0°C 41.9°F5.5°C 69% 9.0 mph SE14.5 kmh SE 19.0 mph30.6 kmh 29.58 in1001.7 mb 0.00 in0.0 mm 0.00 in0.0 mm 0.03 in0.8 mm
12:15 PM 51.4°F10.8°C 41.5°F5.3°C 69% 8.0 mph SE12.9 kmh SE 19.0 mph30.6 kmh 29.58 in1001.7 mb 0.00 in0.0 mm 0.00 in0.0 mm 0.03 in0.8 mm
12:20 PM 51.6°F10.9°C 42.1°F5.6°C 70% 4.0 mph SE6.4 kmh SE 10.0 mph16.1 kmh 29.58 in1001.7 mb 0.00 in0.0 mm 0.00 in0.0 mm 0.03 in0.8 mm
12:25 PM 51.6°F10.9°C 41.7°F5.4°C 69% 5.0 mph SSE8.0 kmh SSE 14.0 mph22.5 kmh 29.58 in1001.7 mb 0.00 in0.0 mm 0.00 in0.0 mm 0.03 in0.8 mm
12:30 PM 51.6°F10.9°C 41.7°F5.4°C 69% 4.0 mph SSE6.4 kmh SSE 8.0 mph12.9 kmh 29.58 in1001.7 mb 0.00 in0.0 mm 0.00 in0.0 mm 0.03 in0.8 mm
12:35 PM 51.8°F11.0°C 41.5°F5.3°C 68% 4.0 mph SE6.4 kmh SE 11.0 mph17.7 kmh 29.58 in1001.7 mb 0.00 in0.0 mm 0.00 in0.0 mm 0.03 in0.8 mm
12:40 PM 51.6°F10.9°C 42.1°F5.6°C 70% 6.0 mph SSE9.7 kmh SSE 13.0 mph20.9 kmh 29.58 in1001.7 mb 0.00 in0.0 mm 0.00 in0.0 mm 0.03 in0.8 mm
12:45 PM 51.3°F10.7°C 41.7°F5.4°C 70% 5.0 mph SSE8.0 kmh SSE 13.0 mph20.9 kmh 29.58 in1001.7 mb 0.00 in0.0 mm 0.00 in0.0 mm 0.03 in0.8 mm
12:50 PM 51.3°F10.7°C 42.3°F5.7°C 71% 2.0 mph SSE3.2 kmh SSE 11.0 mph17.7 kmh 29.58 in1001.7 mb 0.00 in0.0 mm 0.00 in0.0 mm 0.03 in0.8 mm
12:55 PM 51.3°F10.7°C 42.3°F5.7°C 71% Calm Calm 4.0 mph6.4 kmh 29.59 in1002.0 mb 0.00 in0.0 mm 0.00 in0.0 mm 0.03 in0.8 mm
01:00 PM 51.4°F10.8°C 42.3°F5.7°C 71% 2.0 mph SSE3.2 kmh SSE 5.0 mph8.0 kmh 29.58 in1001.7 mb 0.00 in0.0 mm 0.00 in0.0 mm 0.03 in0.8 mm
01:05 PM 51.4°F10.8°C 42.3°F5.7°C 71% 3.0 mph SSE4.8 kmh SSE 10.0 mph16.1 kmh 29.59 in1002.0 mb 0.00 in0.0 mm 0.00 in0.0 mm 0.03 in0.8 mm
01:10 PM 51.4°F10.8°C 42.3°F5.7°C 71% 4.0 mph SE6.4 kmh SE 10.0 mph16.1 kmh 29.59 in1002.0 mb 0.00 in0.0 mm 0.00 in0.0 mm 0.03 in0.8 mm
01:15 PM 51.3°F10.7°C 42.6°F5.9°C 72% 3.0 mph SSE4.8 kmh SSE 11.0 mph17.7 kmh 29.59 in1002.0 mb 0.00 in0.0 mm 0.00 in0.0 mm 0.03 in0.8 mm
01:20 PM 51.1°F10.6°C 42.4°F5.8°C 72% 1.0 mph SSE1.6 kmh SSE 8.0 mph12.9 kmh 29.59 in1002.0 mb 0.00 in0.0 mm 0.00 in0.0 mm 0.03 in0.8 mm
01:25 PM 51.1°F10.6°C 42.4°F5.8°C 72% 5.0 mph SE8.0 kmh SE 9.0 mph14.5 kmh 29.59 in1002.0 mb 0.00 in0.0 mm 0.00 in0.0 mm 0.03 in0.8 mm
01:30 PM 51.1°F10.6°C 42.4°F5.8°C 72% 2.0 mph SE3.2 kmh SE 6.0 mph9.7 kmh 29.59 in1002.0 mb 0.00 in0.0 mm 0.00 in0.0 mm 0.03 in0.8 mm
01:35 PM 51.1°F10.6°C 42.8°F6.0°C 73% Calm Calm 3.0 mph4.8 kmh 29.59 in1002.0 mb 0.00 in0.0 mm 0.00 in0.0 mm 0.03 in0.8 mm
01:40 PM 51.3°F10.7°C 43.0°F6.1°C 73% Calm Calm 2.0 mph3.2 kmh 29.59 in1002.0 mb 0.00 in0.0 mm 0.00 in0.0 mm 0.03 in0.8 mm
01:45 PM 51.8°F11.0°C 43.3°F6.3°C 73% Calm Calm 5.0 mph8.0 kmh 29.59 in1002.0 mb 0.00 in0.0 mm 0.00 in0.0 mm 0.03 in0.8 mm
01:50 PM 52.2°F11.2°C 43.0°F6.1°C 71% Calm Calm 5.0 mph8.0 kmh 29.58 in1001.7 mb 0.00 in0.0 mm 0.00 in0.0 mm 0.03 in0.8 mm
01:55 PM 52.3°F11.3°C 43.2°F6.2°C 71% 1.0 mph E1.6 kmh E 11.0 mph17.7 kmh 29.58 in1001.7 mb 0.00 in0.0 mm 0.00 in0.0 mm 0.03 in0.8 mm
02:00 PM 52.9°F11.6°C 43.0°F6.1°C 69% 3.0 mph SSE4.8 kmh SSE 13.0 mph20.9 kmh 29.59 in1002.0 mb 0.00 in0.0 mm 0.00 in0.0 mm 0.03 in0.8 mm
02:05 PM 53.1°F11.7°C 42.1°F5.6°C 66% 4.0 mph SE6.4 kmh SE 11.0 mph17.7 kmh 29.59 in1002.0 mb 0.00 in0.0 mm 0.00 in0.0 mm 0.03 in0.8 mm
02:10 PM 53.2°F11.8°C 41.7°F5.4°C 65% 5.0 mph SE8.0 kmh SE 11.0 mph17.7 kmh 29.59 in1002.0 mb 0.00 in0.0 mm 0.00 in0.0 mm 0.03 in0.8 mm
02:15 PM 52.9°F11.6°C 41.4°F5.2°C 65% 5.0 mph SE8.0 kmh SE 13.0 mph20.9 kmh 29.59 in1002.0 mb 0.00 in0.0 mm 0.00 in0.0 mm 0.03 in0.8 mm
02:20 PM 53.1°F11.7°C 42.1°F5.6°C 66% 5.0 mph SE8.0 kmh SE 10.0 mph16.1 kmh 29.59 in1002.0 mb 0.00 in0.0 mm 0.00 in0.0 mm 0.03 in0.8 mm
02:25 PM 53.2°F11.8°C 42.6°F5.9°C 67% 2.0 mph SE3.2 kmh SE 9.0 mph14.5 kmh 29.59 in1002.0 mb 0.00 in0.0 mm 0.00 in0.0 mm 0.03 in0.8 mm
02:30 PM 53.4°F11.9°C 41.9°F5.5°C 65% 5.0 mph SE8.0 kmh SE 12.0 mph19.3 kmh 29.59 in1002.0 mb 0.00 in0.0 mm 0.00 in0.0 mm 0.03 in0.8 mm
02:35 PM 53.4°F11.9°C 41.9°F5.5°C 65% 3.0 mph SSE4.8 kmh SSE 10.0 mph16.1 kmh 29.59 in1002.0 mb 0.00 in0.0 mm 0.00 in0.0 mm 0.03 in0.8 mm
02:40 PM 53.2°F11.8°C 41.0°F5.0°C 63% 6.0 mph SE9.7 kmh SE 11.0 mph17.7 kmh 29.59 in1002.0 mb 0.00 in0.0 mm 0.00 in0.0 mm 0.03 in0.8 mm
02:45 PM 53.2°F11.8°C 41.4°F5.2°C 64% 3.0 mph SE4.8 kmh SE 9.0 mph14.5 kmh 29.59 in1002.0 mb 0.00 in0.0 mm 0.00 in0.0 mm 0.03 in0.8 mm
02:50 PM 53.1°F11.7°C 40.8°F4.9°C 63% 4.0 mph SE6.4 kmh SE 11.0 mph17.7 kmh 29.59 in1002.0 mb 0.00 in0.0 mm 0.00 in0.0 mm 0.03 in0.8 mm
02:55 PM 52.5°F11.4°C 40.3°F4.6°C 63% 5.0 mph SE8.0 kmh SE 11.0 mph17.7 kmh 29.59 in1002.0 mb 0.00 in0.0 mm 0.00 in0.0 mm 0.03 in0.8 mm
03:00 PM 52.5°F11.4°C 40.6°F4.8°C 64% 2.0 mph SE3.2 kmh SE 10.0 mph16.1 kmh 29.59 in1002.0 mb 0.00 in0.0 mm 0.00 in0.0 mm 0.03 in0.8 mm
03:05 PM 52.3°F11.3°C 40.1°F4.5°C 63% 3.0 mph SE4.8 kmh SE 12.0 mph19.3 kmh 29.59 in1002.0 mb 0.00 in0.0 mm 0.00 in0.0 mm 0.03 in0.8 mm
03:10 PM 52.3°F11.3°C 40.5°F4.7°C 64% 1.0 mph SE1.6 kmh SE 7.0 mph11.3 kmh 29.59 in1002.0 mb 0.00 in0.0 mm 0.00 in0.0 mm 0.03 in0.8 mm
03:15 PM 52.2°F11.2°C 40.8°F4.9°C 65% 1.0 mph SE1.6 kmh SE 8.0 mph12.9 kmh 29.59 in1002.0 mb 0.00 in0.0 mm 0.00 in0.0 mm 0.03 in0.8 mm
03:20 PM 52.0°F11.1°C 40.6°F4.8°C 65% 1.0 mph SE1.6 kmh SE 8.0 mph12.9 kmh 29.59 in1002.0 mb 0.00 in0.0 mm 0.00 in0.0 mm 0.03 in0.8 mm
03:25 PM 52.0°F11.1°C 41.4°F5.2°C 67% 1.0 mph SSE1.6 kmh SSE 6.0 mph9.7 kmh 29.59 in1002.0 mb 0.00 in0.0 mm 0.00 in0.0 mm 0.03 in0.8 mm
03:30 PM 52.0°F11.1°C 41.4°F5.2°C 67% Calm Calm 2.0 mph3.2 kmh 29.59 in1002.0 mb 0.00 in0.0 mm 0.00 in0.0 mm 0.03 in0.8 mm
03:35 PM 52.0°F11.1°C 41.4°F5.2°C 67% Calm Calm 1.0 mph1.6 kmh 29.59 in1002.0 mb 0.00 in0.0 mm 0.00 in0.0 mm 0.03 in0.8 mm
03:40 PM 52.0°F11.1°C 41.4°F5.2°C 67% Calm Calm -- 29.59 in1002.0 mb 0.00 in0.0 mm 0.00 in0.0 mm 0.03 in0.8 mm
03:45 PM 52.0°F11.1°C 41.7°F5.4°C 68% Calm Calm -- 29.59 in1002.0 mb 0.00 in0.0 mm 0.00 in0.0 mm 0.03 in0.8 mm
03:50 PM 52.2°F11.2°C 41.9°F5.5°C 68% Calm Calm 2.0 mph3.2 kmh 29.59 in1002.0 mb 0.00 in0.0 mm 0.00 in0.0 mm 0.03 in0.8 mm
03:55 PM 52.2°F11.2°C 41.9°F5.5°C 68% Calm Calm -- 29.60 in1002.4 mb 0.00 in0.0 mm 0.00 in0.0 mm 0.03 in0.8 mm
04:00 PM 52.3°F11.3°C 42.1°F5.6°C 68% Calm Calm -- 29.60 in1002.4 mb 0.00 in0.0 mm 0.00 in0.0 mm 0.03 in0.8 mm
04:05 PM 52.3°F11.3°C 42.4°F5.8°C 69% Calm Calm -- 29.60 in1002.4 mb 0.00 in0.0 mm 0.00 in0.0 mm 0.03 in0.8 mm
04:10 PM 52.5°F11.4°C 42.6°F5.9°C 69% Calm Calm -- 29.60 in1002.4 mb 0.00 in0.0 mm 0.00 in0.0 mm 0.03 in0.8 mm
04:15 PM 52.5°F11.4°C 42.6°F5.9°C 69% Calm Calm -- 29.60 in1002.4 mb 0.00 in0.0 mm 0.00 in0.0 mm 0.03 in0.8 mm
04:20 PM 52.5°F11.4°C 40.6°F4.8°C 64% Calm Calm 4.0 mph6.4 kmh 29.59 in1002.0 mb 0.00 in0.0 mm 0.00 in0.0 mm 0.03 in0.8 mm
04:25 PM 52.5°F11.4°C 41.0°F5.0°C 65% Calm Calm 1.0 mph1.6 kmh 29.59 in1002.0 mb 0.00 in0.0 mm 0.00 in0.0 mm 0.03 in0.8 mm
04:30 PM 52.5°F11.4°C 41.0°F5.0°C 65% Calm Calm -- 29.60 in1002.4 mb 0.00 in0.0 mm 0.00 in0.0 mm 0.03 in0.8 mm
04:35 PM 52.5°F11.4°C 41.0°F5.0°C 65% Calm Calm -- 29.59 in1002.0 mb 0.00 in0.0 mm 0.00 in0.0 mm 0.03 in0.8 mm
04:40 PM 52.3°F11.3°C 41.0°F5.0°C 65% Calm Calm -- 29.59 in1002.0 mb 0.00 in0.0 mm 0.00 in0.0 mm 0.03 in0.8 mm
04:45 PM 52.3°F11.3°C 41.4°F5.2°C 66% Calm Calm -- 29.59 in1002.0 mb 0.00 in0.0 mm 0.00 in0.0 mm 0.03 in0.8 mm
04:50 PM 52.2°F11.2°C 40.8°F4.9°C 65% Calm Calm -- 29.60 in1002.4 mb 0.00 in0.0 mm 0.00 in0.0 mm 0.03 in0.8 mm
04:55 PM 52.0°F11.1°C 40.6°F4.8°C 65% Calm Calm -- 29.60 in1002.4 mb 0.00 in0.0 mm 0.00 in0.0 mm 0.03 in0.8 mm
05:00 PM 52.0°F11.1°C 41.0°F5.0°C 66% Calm Calm -- 29.60 in1002.4 mb 0.00 in0.0 mm 0.00 in0.0 mm 0.03 in0.8 mm
05:05 PM 51.8°F11.0°C 41.2°F5.1°C 67% Calm Calm -- 29.60 in1002.4 mb 0.00 in0.0 mm 0.00 in0.0 mm 0.03 in0.8 mm
05:10 PM 51.6°F10.9°C 41.0°F5.0°C 67% Calm Calm 2.0 mph3.2 kmh 29.60 in1002.4 mb 0.00 in0.0 mm 0.00 in0.0 mm 0.03 in0.8 mm
05:15 PM 51.4°F10.8°C 39.2°F4.0°C 63% Calm Calm 4.0 mph6.4 kmh 29.60 in1002.4 mb 0.00 in0.0 mm 0.00 in0.0 mm 0.03 in0.8 mm
05:20 PM 51.4°F10.8°C 38.8°F3.8°C 62% Calm Calm 2.0 mph3.2 kmh 29.60 in1002.4 mb 0.00 in0.0 mm 0.00 in0.0 mm 0.03 in0.8 mm
05:25 PM 51.3°F10.7°C 39.0°F3.9°C 63% Calm Calm 3.0 mph4.8 kmh 29.60 in1002.4 mb 0.00 in0.0 mm 0.00 in0.0 mm 0.03 in0.8 mm
05:30 PM 51.3°F10.7°C 38.7°F3.7°C 62% Calm Calm 1.0 mph1.6 kmh 29.60 in1002.4 mb 0.00 in0.0 mm 0.00 in0.0 mm 0.03 in0.8 mm
05:35 PM 51.1°F10.6°C 38.5°F3.6°C 62% Calm Calm -- 29.60 in1002.4 mb 0.00 in0.0 mm 0.00 in0.0 mm 0.03 in0.8 mm
05:40 PM 51.1°F10.6°C 38.5°F3.6°C 62% Calm Calm 2.0 mph3.2 kmh 29.61 in1002.7 mb 0.00 in0.0 mm 0.00 in0.0 mm 0.03 in0.8 mm
05:45 PM 50.9°F10.5°C 38.3°F3.5°C 62% Calm Calm 1.0 mph1.6 kmh 29.60 in1002.4 mb 0.00 in0.0 mm 0.00 in0.0 mm 0.03 in0.8 mm
05:50 PM 50.7°F10.4°C 38.7°F3.7°C 63% Calm Calm -- 29.60 in1002.4 mb 0.00 in0.0 mm 0.00 in0.0 mm 0.03 in0.8 mm
05:55 PM 50.7°F10.4°C 38.7°F3.7°C 63% Calm Calm -- 29.60 in1002.4 mb 0.00 in0.0 mm 0.00 in0.0 mm 0.03 in0.8 mm
06:00 PM 50.5°F10.3°C 37.6°F3.1°C 61% Calm Calm 4.0 mph6.4 kmh 29.60 in1002.4 mb 0.00 in0.0 mm 0.00 in0.0 mm 0.03 in0.8 mm
06:05 PM 50.5°F10.3°C 37.9°F3.3°C 62% Calm Calm -- 29.60 in1002.4 mb 0.00 in0.0 mm 0.00 in0.0 mm 0.03 in0.8 mm
06:10 PM 50.5°F10.3°C 37.9°F3.3°C 62% Calm Calm -- 29.60 in1002.4 mb 0.00 in0.0 mm 0.00 in0.0 mm 0.03 in0.8 mm
06:15 PM 50.5°F10.3°C 38.8°F3.8°C 64% Calm Calm 1.0 mph1.6 kmh 29.61 in1002.7 mb 0.00 in0.0 mm 0.00 in0.0 mm 0.03 in0.8 mm
06:20 PM 50.5°F10.3°C 37.9°F3.3°C 62% Calm Calm 3.0 mph4.8 kmh 29.61 in1002.7 mb 0.00 in0.0 mm 0.00 in0.0 mm 0.03 in0.8 mm
06:25 PM 50.4°F10.2°C 38.3°F3.5°C 63% Calm Calm 1.0 mph1.6 kmh 29.61 in1002.7 mb 0.00 in0.0 mm 0.00 in0.0 mm 0.03 in0.8 mm
06:30 PM 50.4°F10.2°C 37.4°F3.0°C 61% Calm Calm 3.0 mph4.8 kmh 29.61 in1002.7 mb 0.00 in0.0 mm 0.00 in0.0 mm 0.03 in0.8 mm
06:35 PM 50.4°F10.2°C 37.0°F2.8°C 60% Calm Calm 2.0 mph3.2 kmh 29.61 in1002.7 mb 0.00 in0.0 mm 0.00 in0.0 mm 0.03 in0.8 mm
06:40 PM 50.2°F10.1°C 37.6°F3.1°C 62% Calm Calm -- 29.61 in1002.7 mb 0.00 in0.0 mm 0.00 in0.0 mm 0.03 in0.8 mm
06:45 PM 50.2°F10.1°C 37.6°F3.1°C 62% Calm Calm 3.0 mph4.8 kmh 29.61 in1002.7 mb 0.00 in0.0 mm 0.00 in0.0 mm 0.03 in0.8 mm
06:50 PM 50.0°F10.0°C 37.9°F3.3°C 63% Calm Calm 2.0 mph3.2 kmh 29.61 in1002.7 mb 0.00 in0.0 mm 0.00 in0.0 mm 0.03 in0.8 mm
06:55 PM 50.0°F10.0°C 37.9°F3.3°C 63% Calm Calm 1.0 mph1.6 kmh 29.61 in1002.7 mb 0.00 in0.0 mm 0.00 in0.0 mm 0.03 in0.8 mm
07:00 PM 49.8°F9.9°C 37.8°F3.2°C 63% Calm Calm 4.0 mph6.4 kmh 29.61 in1002.7 mb 0.00 in0.0 mm 0.00 in0.0 mm 0.03 in0.8 mm
07:05 PM 50.0°F10.0°C 37.4°F3.0°C 62% Calm Calm 3.0 mph4.8 kmh 29.61 in1002.7 mb 0.00 in0.0 mm 0.00 in0.0 mm 0.03 in0.8 mm
07:10 PM 49.8°F9.9°C 36.9°F2.7°C 61% Calm Calm 4.0 mph6.4 kmh 29.62 in1003.0 mb 0.00 in0.0 mm 0.00 in0.0 mm 0.03 in0.8 mm
07:15 PM 49.8°F9.9°C 36.9°F2.7°C 61% 1.0 mph ENE1.6 kmh ENE 6.0 mph9.7 kmh 29.62 in1003.0 mb 0.00 in0.0 mm 0.00 in0.0 mm 0.03 in0.8 mm
07:20 PM 49.8°F9.9°C 36.9°F2.7°C 61% Calm Calm 4.0 mph6.4 kmh 29.62 in1003.0 mb 0.00 in0.0 mm 0.00 in0.0 mm 0.03 in0.8 mm
07:25 PM 49.8°F9.9°C 36.1°F2.3°C 59% 1.0 mph ENE1.6 kmh ENE 5.0 mph8.0 kmh 29.62 in1003.0 mb 0.00 in0.0 mm 0.00 in0.0 mm 0.03 in0.8 mm
07:30 PM 50.0°F10.0°C 35.8°F2.1°C 58% 1.0 mph ENE1.6 kmh ENE 9.0 mph14.5 kmh 29.63 in1003.4 mb 0.00 in0.0 mm 0.00 in0.0 mm 0.03 in0.8 mm
07:35 PM 50.2°F10.1°C 36.3°F2.4°C 59% Calm Calm 1.0 mph1.6 kmh 29.63 in1003.4 mb 0.00 in0.0 mm 0.00 in0.0 mm 0.03 in0.8 mm
07:40 PM 50.0°F10.0°C 36.7°F2.6°C 60% Calm Calm 3.0 mph4.8 kmh 29.63 in1003.4 mb 0.00 in0.0 mm 0.00 in0.0 mm 0.03 in0.8 mm
07:45 PM 49.8°F9.9°C 36.5°F2.5°C 60% Calm Calm 7.0 mph11.3 kmh 29.64 in1003.7 mb 0.00 in0.0 mm 0.00 in0.0 mm 0.03 in0.8 mm
07:50 PM 49.8°F9.9°C 36.9°F2.7°C 61% 1.0 mph ENE1.6 kmh ENE 4.0 mph6.4 kmh 29.64 in1003.7 mb 0.00 in0.0 mm 0.00 in0.0 mm 0.03 in0.8 mm
07:55 PM 49.8°F9.9°C 37.4°F3.0°C 62% 1.0 mph ENE1.6 kmh ENE 6.0 mph9.7 kmh 29.64 in1003.7 mb 0.00 in0.0 mm 0.00 in0.0 mm 0.03 in0.8 mm
08:00 PM 49.6°F9.8°C 37.2°F2.9°C 62% Calm Calm 5.0 mph8.0 kmh 29.64 in1003.7 mb 0.00 in0.0 mm 0.00 in0.0 mm 0.03 in0.8 mm
08:05 PM 49.6°F9.8°C 37.2°F2.9°C 62% 1.0 mph ENE1.6 kmh ENE 10.0 mph16.1 kmh 29.63 in1003.4 mb 0.00 in0.0 mm 0.00 in0.0 mm 0.03 in0.8 mm
08:10 PM 49.5°F9.7°C 37.4°F3.0°C 63% Calm Calm 5.0 mph8.0 kmh 29.63 in1003.4 mb 0.00 in0.0 mm 0.00 in0.0 mm 0.03 in0.8 mm
08:15 PM 49.5°F9.7°C 37.4°F3.0°C 63% 1.0 mph E1.6 kmh E 8.0 mph12.9 kmh 29.63 in1003.4 mb 0.00 in0.0 mm 0.00 in0.0 mm 0.03 in0.8 mm
08:20 PM 49.3°F9.6°C 37.2°F2.9°C 63% Calm Calm 3.0 mph4.8 kmh 29.64 in1003.7 mb 0.00 in0.0 mm 0.00 in0.0 mm 0.03 in0.8 mm
08:25 PM 49.1°F9.5°C 37.4°F3.0°C 64% Calm Calm 6.0 mph9.7 kmh 29.63 in1003.4 mb 0.00 in0.0 mm 0.00 in0.0 mm 0.03 in0.8 mm
08:30 PM 48.7°F9.3°C 37.0°F2.8°C 64% Calm Calm 8.0 mph12.9 kmh 29.64 in1003.7 mb 0.00 in0.0 mm 0.00 in0.0 mm 0.03 in0.8 mm
08:35 PM 48.7°F9.3°C 37.0°F2.8°C 64% Calm Calm 4.0 mph6.4 kmh 29.64 in1003.7 mb 0.00 in0.0 mm 0.00 in0.0 mm 0.03 in0.8 mm
08:40 PM 48.6°F9.2°C 36.9°F2.7°C 64% Calm Calm 3.0 mph4.8 kmh 29.64 in1003.7 mb 0.00 in0.0 mm 0.00 in0.0 mm 0.03 in0.8 mm
08:45 PM 48.6°F9.2°C 36.1°F2.3°C 62% 2.0 mph E3.2 kmh E 11.0 mph17.7 kmh 29.64 in1003.7 mb 0.00 in0.0 mm 0.00 in0.0 mm 0.03 in0.8 mm
08:50 PM 48.7°F9.3°C 36.3°F2.4°C 62% 1.0 mph E1.6 kmh E 10.0 mph16.1 kmh 29.64 in1003.7 mb 0.00 in0.0 mm 0.00 in0.0 mm 0.03 in0.8 mm
08:55 PM 48.7°F9.3°C 36.3°F2.4°C 62% 2.0 mph E3.2 kmh E 7.0 mph11.3 kmh 29.64 in1003.7 mb 0.00 in0.0 mm 0.00 in0.0 mm 0.03 in0.8 mm
09:00 PM 48.7°F9.3°C 36.3°F2.4°C 62% Calm Calm 5.0 mph8.0 kmh 29.64 in1003.7 mb 0.00 in0.0 mm 0.00 in0.0 mm 0.03 in0.8 mm
09:05 PM 48.6°F9.2°C 35.8°F2.1°C 61% 1.0 mph E1.6 kmh E 9.0 mph14.5 kmh 29.64 in1003.7 mb 0.00 in0.0 mm 0.00 in0.0 mm 0.03 in0.8 mm
09:10 PM 48.6°F9.2°C 35.8°F2.1°C 61% 1.0 mph ENE1.6 kmh ENE 7.0 mph11.3 kmh 29.64 in1003.7 mb 0.00 in0.0 mm 0.00 in0.0 mm 0.03 in0.8 mm
09:15 PM 48.4°F9.1°C 35.6°F2.0°C 61% 1.0 mph ENE1.6 kmh ENE 12.0 mph19.3 kmh 29.64 in1003.7 mb 0.00 in0.0 mm 0.00 in0.0 mm 0.03 in0.8 mm
09:20 PM 48.4°F9.1°C 35.6°F2.0°C 61% 1.0 mph ENE1.6 kmh ENE 10.0 mph16.1 kmh 29.64 in1003.7 mb 0.00 in0.0 mm 0.00 in0.0 mm 0.03 in0.8 mm
09:25 PM 48.4°F9.1°C 36.3°F2.4°C 63% 1.0 mph ENE1.6 kmh ENE 9.0 mph14.5 kmh 29.64 in1003.7 mb 0.00 in0.0 mm 0.00 in0.0 mm 0.03 in0.8 mm
09:30 PM 48.2°F9.0°C 36.1°F2.3°C 63% 1.0 mph E1.6 kmh E 7.0 mph11.3 kmh 29.64 in1003.7 mb 0.00 in0.0 mm 0.00 in0.0 mm 0.03 in0.8 mm
09:35 PM 48.0°F8.9°C 35.6°F2.0°C 62% 2.0 mph ENE3.2 kmh ENE 11.0 mph17.7 kmh 29.64 in1003.7 mb 0.00 in0.0 mm 0.00 in0.0 mm 0.03 in0.8 mm
09:40 PM 48.2°F9.0°C 35.8°F2.1°C 62% 2.0 mph ENE3.2 kmh ENE 13.0 mph20.9 kmh 29.64 in1003.7 mb 0.00 in0.0 mm 0.00 in0.0 mm 0.03 in0.8 mm
09:45 PM 48.0°F8.9°C 36.0°F2.2°C 63% 1.0 mph ENE1.6 kmh ENE 10.0 mph16.1 kmh 29.65 in1004.1 mb 0.00 in0.0 mm 0.00 in0.0 mm 0.03 in0.8 mm
09:50 PM 48.0°F8.9°C 36.0°F2.2°C 63% 1.0 mph ENE1.6 kmh ENE 9.0 mph14.5 kmh 29.65 in1004.1 mb 0.00 in0.0 mm 0.00 in0.0 mm 0.03 in0.8 mm
09:55 PM 48.0°F8.9°C 36.0°F2.2°C 63% 1.0 mph ENE1.6 kmh ENE 7.0 mph11.3 kmh 29.65 in1004.1 mb 0.00 in0.0 mm 0.00 in0.0 mm 0.03 in0.8 mm
10:00 PM 47.8°F8.8°C 36.3°F2.4°C 64% 1.0 mph ENE1.6 kmh ENE 12.0 mph19.3 kmh 29.65 in1004.1 mb 0.00 in0.0 mm 0.00 in0.0 mm 0.03 in0.8 mm
10:05 PM 47.7°F8.7°C 36.1°F2.3°C 64% 1.0 mph E1.6 kmh E 9.0 mph14.5 kmh 29.65 in1004.1 mb 0.00 in0.0 mm 0.00 in0.0 mm 0.03 in0.8 mm
10:10 PM 47.7°F8.7°C 36.1°F2.3°C 64% 1.0 mph ENE1.6 kmh ENE 8.0 mph12.9 kmh 29.65 in1004.1 mb 0.00 in0.0 mm 0.00 in0.0 mm 0.03 in0.8 mm
10:15 PM 47.7°F8.7°C 36.1°F2.3°C 64% 3.0 mph ENE4.8 kmh ENE 9.0 mph14.5 kmh 29.65 in1004.1 mb 0.00 in0.0 mm 0.00 in0.0 mm 0.03 in0.8 mm
10:20 PM 47.5°F8.6°C 36.3°F2.4°C 65% 1.0 mph ENE1.6 kmh ENE 11.0 mph17.7 kmh 29.65 in1004.1 mb 0.00 in0.0 mm 0.00 in0.0 mm 0.03 in0.8 mm
10:25 PM 47.5°F8.6°C 36.3°F2.4°C 65% 1.0 mph ENE1.6 kmh ENE 9.0 mph14.5 kmh 29.65 in1004.1 mb 0.00 in0.0 mm 0.00 in0.0 mm 0.03 in0.8 mm
10:30 PM 47.3°F8.5°C 36.1°F2.3°C 65% 1.0 mph ENE1.6 kmh ENE 10.0 mph16.1 kmh 29.65 in1004.1 mb 0.00 in0.0 mm 0.00 in0.0 mm 0.03 in0.8 mm
10:35 PM 47.1°F8.4°C 36.0°F2.2°C 65% 1.0 mph ENE1.6 kmh ENE 10.0 mph16.1 kmh 29.65 in1004.1 mb 0.00 in0.0 mm 0.00 in0.0 mm 0.03 in0.8 mm
10:40 PM 47.1°F8.4°C 36.3°F2.4°C 66% 1.0 mph ENE1.6 kmh ENE 4.0 mph6.4 kmh 29.65 in1004.1 mb 0.00 in0.0 mm 0.00 in0.0 mm 0.03 in0.8 mm
10:45 PM 46.9°F8.3°C 36.5°F2.5°C 67% 1.0 mph ENE1.6 kmh ENE 9.0 mph14.5 kmh 29.65 in1004.1 mb 0.00 in0.0 mm 0.00 in0.0 mm 0.03 in0.8 mm
10:50 PM 46.6°F8.1°C 36.5°F2.5°C 68% 1.0 mph ENE1.6 kmh ENE 6.0 mph9.7 kmh 29.65 in1004.1 mb 0.00 in0.0 mm 0.00 in0.0 mm 0.03 in0.8 mm
10:55 PM 46.6°F8.1°C 36.5°F2.5°C 68% 2.0 mph ENE3.2 kmh ENE 9.0 mph14.5 kmh 29.65 in1004.1 mb 0.00 in0.0 mm 0.00 in0.0 mm 0.03 in0.8 mm
11:00 PM 46.6°F8.1°C 36.5°F2.5°C 68% 1.0 mph ENE1.6 kmh ENE 6.0 mph9.7 kmh 29.65 in1004.1 mb 0.00 in0.0 mm 0.00 in0.0 mm 0.03 in0.8 mm
11:05 PM 46.2°F7.9°C 36.7°F2.6°C 69% 2.0 mph ENE3.2 kmh ENE 7.0 mph11.3 kmh 29.65 in1004.1 mb 0.00 in0.0 mm 0.00 in0.0 mm 0.03 in0.8 mm
11:10 PM 46.0°F7.8°C 36.9°F2.7°C 70% 1.0 mph ENE1.6 kmh ENE 7.0 mph11.3 kmh 29.65 in1004.1 mb 0.00 in0.0 mm 0.00 in0.0 mm 0.03 in0.8 mm
11:15 PM 46.0°F7.8°C 36.9°F2.7°C 70% 2.0 mph ENE3.2 kmh ENE 10.0 mph16.1 kmh 29.65 in1004.1 mb 0.00 in0.0 mm 0.00 in0.0 mm 0.03 in0.8 mm
11:20 PM 46.0°F7.8°C 37.2°F2.9°C 71% 1.0 mph ENE1.6 kmh ENE 10.0 mph16.1 kmh 29.65 in1004.1 mb 0.00 in0.0 mm 0.00 in0.0 mm 0.03 in0.8 mm
11:25 PM 46.0°F7.8°C 37.2°F2.9°C 71% 2.0 mph ENE3.2 kmh ENE 10.0 mph16.1 kmh 29.65 in1004.1 mb 0.00 in0.0 mm 0.00 in0.0 mm 0.03 in0.8 mm
11:30 PM 46.0°F7.8°C 37.2°F2.9°C 71% 2.0 mph ENE3.2 kmh ENE 10.0 mph16.1 kmh 29.65 in1004.1 mb 0.00 in0.0 mm 0.00 in0.0 mm 0.03 in0.8 mm
11:35 PM 46.2°F7.9°C 37.4°F3.0°C 71% 4.0 mph ENE6.4 kmh ENE 13.0 mph20.9 kmh 29.65 in1004.1 mb 0.00 in0.0 mm 0.00 in0.0 mm 0.03 in0.8 mm
11:40 PM 46.0°F7.8°C 37.6°F3.1°C 72% 4.0 mph NE6.4 kmh NE 13.0 mph20.9 kmh 29.65 in1004.1 mb 0.00 in0.0 mm 0.00 in0.0 mm 0.03 in0.8 mm
11:45 PM 45.9°F7.7°C 37.4°F3.0°C 72% 3.0 mph NE4.8 kmh NE 12.0 mph19.3 kmh 29.65 in1004.1 mb 0.00 in0.0 mm 0.00 in0.0 mm 0.03 in0.8 mm
11:50 PM 45.7°F7.6°C 37.6°F3.1°C 73% 1.0 mph NNE1.6 kmh NNE 5.0 mph8.0 kmh 29.65 in1004.1 mb 0.00 in0.0 mm 0.00 in0.0 mm 0.03 in0.8 mm
11:55 PM 45.5°F7.5°C 37.4°F3.0°C 73% 1.0 mph NE1.6 kmh NE 9.0 mph14.5 kmh 29.66 in1004.4 mb 0.00 in0.0 mm 0.00 in0.0 mm 0.03 in0.8 mm